GW4551 Weather Reports


time (UTC)temp
C
wind
direction
speed
KPH
gust
KPH
rain 1hr
cm
rain 24hr
cm
rain mn
cm
humidity
%
barometer
mb
20260510162032 11 40 14.5 27.4 0.00 0.00 0.00 65 1014.6
20260510161026 11 31 17.7 29.0 0.00 0.00 0.00 64 1014.6
20260510160022 11 28 17.7 30.6 0.00 0.00 0.00 65 1014.8
20260510155057 11 37 14.5 25.7 0.00 0.00 0.00 66 1014.8
20260510154032 11 47 17.7 27.4 0.00 0.00 0.00 66 1014.9
20260510153027 11 36 14.5 29.0 0.00 0.00 0.00 67 1014.9
20260510152023 11 42 14.5 25.7 0.00 0.00 0.00 67 1014.9
20260510151017 11 27 16.1 25.7 0.00 0.00 0.00 67 1015.1
20260510150033 11 24 16.1 29.0 0.00 0.00 0.00 68 1015.2
20260510145028 11 28 12.9 22.5 0.00 0.00 0.00 69 1015.3
20260510144023 11 4 14.5 27.4 0.00 0.00 0.00 70 1015.4
20260510143059 11 35 16.1 27.4 0.00 0.00 0.00 71 1015.6
20260510142114 11 47 16.1 22.5 0.00 0.00 0.00 71 1015.7
20260510141029 11 52 14.5 29.0 0.00 0.00 0.00 71 1015.9
20260510135018 11 53 8.0 16.1 0.00 0.00 0.00 73 1015.9
20260510134033 11 58 8.0 20.9 0.00 0.00 0.00 71 1015.9
20260510133029 11 55 12.9 20.9 0.00 0.00 0.00 72 1015.9
20260510132024 11 35 12.9 22.5 0.00 0.00 0.00 72 1015.9
20260510131019 11 41 11.3 25.7 0.00 0.00 0.00 73 1016.1
20260510130034 11 48 14.5 22.5 0.00 0.00 0.00 72 1016.1
20260510125109 11 49 14.5 27.4 0.00 0.00 0.00 68 1016.1
20260510124023 12 65 12.9 27.4 0.00 0.00 0.00 67 1016.2
20260510123018 12 57 12.9 30.6 0.00 0.00 0.00 67 1016.3
20260510122114 12 61 16.1 35.4 0.00 0.00 0.00 65 1016.2
20260510121029 12 55 14.5 29.0 0.00 0.00 0.00 64 1016.3
20260510120103 12 51 16.1 25.7 0.00 0.00 0.00 64 1016.4
20260510115018 12 44 16.1 33.8 0.00 0.00 0.00 64 1016.3
20260510114034 12 47 12.9 24.1 0.00 0.00 0.00 65 1016.3
20260510113029 13 43 17.7 25.7 0.00 0.00 0.00 63 1016.5
20260510112104 12 57 14.5 27.4 0.00 0.00 0.00 64 1016.6
20260510111019 12 60 12.9 24.1 0.00 0.00 0.00 64 1016.6
20260510110035 12 58 16.1 30.6 0.00 0.00 0.00 63 1016.8
20260510105030 12 48 17.7 30.6 0.00 0.00 0.00 65 1016.8
20260510104025 12 60 14.5 29.0 0.00 0.00 0.00 67 1016.8
20260510103020 11 61 17.7 33.8 0.00 0.00 0.00 67 1016.9
20260510102034 11 48 19.3 30.6 0.00 0.00 0.00 68 1017.0
20260510101028 11 39 12.9 24.1 0.00 0.00 0.00 69 1017.1
20260510100023 11 49 16.1 30.6 0.00 0.00 0.00 68 1017.0
20260510095018 12 55 19.3 30.6 0.00 0.00 0.00 68 1016.9
20260510094032 11 44 24.1 41.8 0.00 0.00 0.00 69 1017.0
20260510093107 11 45 17.7 29.0 0.00 0.00 0.00 69 1017.0
20260510092022 11 32 17.7 27.4 0.00 0.00 0.00 70 1017.1
20260510091016 10 55 20.9 35.4 0.00 0.00 0.00 72 1017.1
20260510090031 10 40 22.5 33.8 0.00 0.00 0.00 73 1017.1
20260510085026 10 40 20.9 35.4 0.00 0.00 0.00 73 1017.2
20260510084021 10 31 16.1 27.4 0.00 0.00 0.00 75 1017.3
20260510083034 10 42 17.7 33.8 0.00 0.00 0.00 75 1017.2
20260510082030 10 32 14.5 25.7 0.00 0.00 0.00 76 1017.3
20260510080532 10 37 19.3 29.0 0.00 0.00 0.00 76 1017.2
20260510075528 10 52 16.1 33.8 0.00 0.00 0.00 77 1017.3
20260510074524 9 47 17.7 33.8 0.00 0.00 0.00 78 1017.4
20260510073520 9 42 16.1 29.0 0.00 0.00 0.00 79 1017.3
20260510072535 9 46 11.3 24.1 0.00 0.00 0.00 80 1017.2
20260510071611 9 31 16.1 29.0 0.00 0.00 0.00 80 1017.4
20260510070528 9 41 12.9 24.1 0.00 0.00 0.00 81 1017.4
20260510065523 9 42 12.9 22.5 0.00 0.00 0.00 82 1017.4
20260510064520 8 44 16.1 27.4 0.00 0.00 0.00 82 1017.3
20260510063535 8 42 16.1 25.7 0.00 0.00 0.00 83 1017.3
20260510062610 8 46 14.5 24.1 0.00 0.00 0.00 83 1017.3
20260510061526 8 41 14.5 25.7 0.00 0.00 0.00 84 1017.3
20260510060521 8 40 14.5 24.1 0.00 0.00 0.00 84 1017.2
20260510055557 8 32 11.3 22.5 0.00 0.00 0.00 84 1017.2
20260510054533 8 24 11.3 22.5 0.00 0.00 0.00 85 1017.2
20260510053529 8 31 12.9 22.5 0.00 0.00 0.00 85 1017.2
20260510052525 8 28 9.7 24.1 0.00 0.00 0.00 86 1017.2
20260510051521 8 26 11.3 17.7 0.00 0.00 0.00 86 1017.3
20260510050517 8 24 9.7 17.7 0.00 0.00 0.00 86 1017.2
20260510045532 8 16 11.3 17.7 0.00 0.00 0.00 86 1017.2
20260510044527 8 17 9.7 17.7 0.00 0.00 0.00 86 1017.0
20260510043523 8 25 9.7 20.9 0.00 0.00 0.00 86 1017.1
20260510042520 8 17 11.3 20.9 0.00 0.00 0.00 86 1017.2
20260510041536 8 41 9.7 17.7 0.00 0.00 0.00 86 1017.2
20260510040532 8 40 9.7 12.9 0.00 0.00 0.00 86 1017.4
20260510035527 8 45 8.0 16.1 0.00 0.00 0.00 86 1017.5
20260510034523 8 38 11.3 17.7 0.00 0.00 0.00 85 1017.5
20260510033559 8 35 11.3 17.7 0.00 0.00 0.00 85 1017.3
20260510032536 8 38 12.9 20.9 0.00 0.00 0.00 84 1017.5
20260510031531 8 23 12.9 22.5 0.00 0.00 0.00 84 1017.6
20260510030527 8 21 14.5 22.5 0.00 0.00 0.00 83 1017.5
20260510025523 8 32 12.9 22.5 0.00 0.00 0.00 83 1017.6
20260510024519 8 26 11.3 20.9 0.00 0.00 0.00 83 1017.5
20260510023536 8 24 9.7 17.7 0.00 0.00 0.00 82 1017.5
20260510022532 8 22 9.7 17.7 0.00 0.00 0.00 80 1017.6
20260510021527 9 12 8.0 12.9 0.00 0.00 0.00 77 1017.6
20260510020523 9 23 8.0 14.5 0.00 0.00 0.00 75 1017.5
20260510015559 9 14 8.0 17.7 0.00 0.00 0.00 73 1017.6
20260510014535 9 28 8.0 16.1 0.00 0.00 0.00 70 1017.5
20260510013530 10 31 11.3 17.7 0.00 0.00 0.00 68 1017.5
20260510012526 10 0 6.4 14.5 0.00 0.00 0.00 67 1017.4
20260510011521 10 14 9.7 20.9 0.00 0.00 0.00 66 1017.5
20260510010516 10 37 9.7 16.1 0.00 0.00 0.00 66 1017.5
20260510005533 10 28 9.7 20.9 0.00 0.00 0.00 64 1017.5
20260510004528 10 42 9.7 20.9 0.00 0.00 0.00 63 1017.4
20260510003521 10 34 11.3 17.7 0.00 0.00 0.00 63 1017.4
20260510002518 10 26 11.3 17.7 0.00 0.00 0.00 62 1017.6
20260510001534 10 17 4.8 11.3 0.00 0.00 0.00 62 1017.6
20260510000530 10 13 4.8 6.4 0.00 0.00 0.00 63 1017.5
20260509235526 10 38 4.8 9.7 0.00 0.00 0.00 63 1017.6
20260509234523 11 50 6.4 9.7 0.00 0.00 0.00 61 1017.7
20260509233518 11 60 8.0 12.9 0.00 0.00 0.00 60 1017.6
20260509232534 11 48 9.7 16.1 0.00 0.00 0.00 58 1017.4
20260509231529 11 49 11.3 17.7 0.00 0.00 0.00 57 1017.6
20260509230525 11 49 6.4 11.3 0.00 0.00 0.00 56 1017.4
20260509225521 11 61 6.4 12.9 0.00 0.00 0.00 55 1017.5
20260509224517 11 51 8.0 14.5 0.00 0.00 0.00 54 1017.5
20260509223532 11 55 9.7 17.7 0.00 0.00 0.00 53 1017.4
20260509222528 11 41 8.0 14.5 0.00 0.00 0.00 52 1017.5
20260509221524 11 51 6.4 11.3 0.00 0.00 0.00 51 1017.5
20260509220600 12 65 6.4 11.3 0.00 0.00 0.00 50 1017.5
20260509215616 12 58 8.0 14.5 0.00 0.00 0.00 49 1017.3
20260509214611 12 64 6.4 12.9 0.00 0.00 0.00 47 1017.6
20260509213607 12 62 8.0 14.5 0.00 0.00 0.00 47 1017.5
20260509212606 12 66 8.0 17.7 0.00 0.00 0.00 46 1017.4
20260509211519 12 56 6.4 14.5 0.00 0.00 0.00 49 1017.4
20260509210532 12 57 6.4 11.3 0.00 0.00 0.00 51 1017.3
20260509205528 12 62 6.4 11.3 0.00 0.00 0.00 50 1017.3
20260509204523 13 65 4.8 9.7 0.00 0.00 0.00 50 1017.0
20260509203519 13 58 8.0 16.1 0.00 0.00 0.00 47 1016.9
20260509202534 13 65 9.7 24.1 0.00 0.00 0.00 46 1016.9
20260509201529 14 67 6.4 14.5 0.00 0.00 0.00 47 1016.8
20260509200524 14 64 3.2 11.3 0.00 0.00 0.00 48 1016.9
20260509195519 14 63 6.4 11.3 0.00 0.00 0.00 48 1016.8
20260509194534 14 85 1.6 6.4 0.00 0.00 0.00 48 1016.7
20260509193529 15 79 1.6 6.4 0.00 0.00 0.00 47 1016.6
20260509192524 15 79 1.6 4.8 0.00 0.00 0.00 45 1016.7
20260509191520 15 85 3.2 9.7 0.00 0.00 0.00 43 1016.5
20260509190616 16 83 1.6 9.7 0.00 0.00 0.00 45 1016.5
20260509185530 16 59 4.8 9.7 0.00 0.00 0.00 46 1016.3
20260509184525 16 76 3.2 6.4 0.00 0.00 0.00 46 1016.3
20260509183520 16 93 1.6 4.8 0.00 0.00 0.00 45 1016.4
20260509182556 17 70 3.2 12.9 0.00 0.00 0.00 46 1016.2
20260509181531 17 94 3.2 9.7 0.00 0.00 0.00 46 1016.2
20260509180605 17 81 4.8 11.3 0.00 0.00 0.00 46 1016.1
20260509175521 17 67 4.8 14.5 0.00 0.00 0.00 45 1016.0
20260509174517 17 64 6.4 14.5 0.00 0.00 0.00 46 1015.9
20260509173530 17 76 4.8 14.5 0.00 0.00 0.00 45 1015.8
20260509172526 18 72 4.8 16.1 0.00 0.00 0.00 45 1015.9
20260509171522 18 72 4.8 14.5 0.00 0.00 0.00 45 1015.8
20260509170517 18 64 11.3 17.7 0.00 0.00 0.00 43 1016.0
20260509165533 18 58 8.0 16.1 0.00 0.00 0.00 44 1015.8
20260509164528 18 78 4.8 14.5 0.00 0.00 0.00 43 1015.9
20260509163604 19 87 3.2 9.7 0.00 0.00 0.00 43 1015.8